User: anonymous   Login
Location: La Pernelle
(49.6188°N, 1.2999°W)
Time: 22:36:26
(UTC+00:00)
Language:

Cosmos 1441 Rocket - Orbit

View from above orbital plane
View from above orbital plane
View from above satellite
View from above satellite

Ground track
Ground track

The orbit data is extracted from the following two-line orbital elements,

1 13819U 83010B   21266.73812346  .00000757  00000-0  37294-4 0  9993
2 13819  81.1147 137.4500 0031697 171.9168 188.2579 15.16276936109944
Epoch (UTC): 23 September 2021 17:42:53
Eccentricity: 0.0031697
inclination: 81.1147°
perigee height: 495 km
apogee height: 539 km
right ascension of ascending node: 137.4500°
argument of perigee: 171.9168°
revolutions per day: 15.16276936
mean anomaly at epoch: 188.2579°
orbit number at epoch: 10994

The dashed part of the orbit path shows where the satellite is in the earth's shadow,  

DLR